This demonstration page uses our WeatherBlox Daily Observations layout. Learn more.

Left ArrowRight Arrow

39.01783, -85.05884

Hourly Observations for November 13, 2018

Temp ( °F °C ) Dew Point ( °F °C ) Humidity (%) Winds ( mph kmh ) Pressure ( in mb ) Visibility ( mi km ) Precip ( " mm )
12:17 am 00:17 Cloudy with Drizzle 36 2.2 34 1.1 93 93 NNW 10 17 30.21 1023 3 5 0.00 0.03
12:52 am 00:52 Cloudy with Mist and Fog 35 1.7 34 1.1 96 96 N 10 17 30.19 1022 4 6 0.00 0.03
1:25 am 01:25 Cloudy with Mist and Fog 35 1.7 35 1.7 100 100 N 8 13 30.24 1024 5 8 0.00 0.00
1:52 am 01:52 Cloudy with Mist and Fog 35 1.7 34 1.1 96 96 N 9 15 30.17 1022 6 10 0.00 0.00
2:52 am 02:52 Cloudy with Mist and Fog 35 1.7 34 1.1 96 96 N 8 13 30.18 1022 5 8 0.00 0.00
3:52 am 03:52 Cloudy with Light Snow 35 1.7 33 0.6 93 93 NNW 8 13 30.18 1022 5 8 0.00 0.03
4:52 am 04:52 Cloudy with Light Snow 35 1.7 33 0.6 93 93 NNW 9 15 30.18 1022 4 6 0.00 0.03
5:39 am 05:39 Cloudy with Light Snow 35 1.7 34 1.1 96 96 NW 7 11 30.27 1025 4 6 0.01 0.25
5:47 am 05:47 Cloudy with Light Snow 36 2 34 1 93 93 NNW 7 11 30.27 1025 4 6 0.01 0.25
5:52 am 05:52 Cloudy with Light Snow 35 1.7 33 0.6 93 93 N 7 11 30.20 1023 3 5 0.01 0.25
6:02 am 06:02 Cloudy with Light Snow 34 1.1 34 1.1 100 100 N 7 11 30.27 1025 3 4 0.00 0.03
6:26 am 06:26 Cloudy with Light Snow 34 1.1 33 0.6 97 97 NNW 7 11 30.24 1024 3 4 0.01 0.25
6:40 am 06:40 Cloudy with Light Rain/Snow 34 1.1 33 0.6 97 97 NW 7 11 30.27 1025 3 5 0.01 0.25
6:52 am 06:52 Cloudy with Light Rain/Snow 34 1.1 33 0.6 97 97 NNW 8 13 30.21 1023 3 5 0.01 0.25
7:04 am 07:04 Cloudy with Light Rain/Snow 35 1.7 34 1.1 96 96 NW 8 13 30.27 1025 3 5 0.00 0.03
7:22 am 07:22 Cloudy with Light Rain/Snow 35 1.7 34 1.1 96 96 NNW 6 9 30.27 1025 2 3 0.00 0.03
7:52 am 07:52 Cloudy with Light Snow 35 1.7 34 1.1 96 96 NW 9 15 30.23 1024 2 3 0.00 0.03
8:52 am 08:52 Cloudy with Drizzle 36 2.2 36 2.2 100 100 NNW 12 19 30.26 1025 2 3 0.00 0.03
9:52 am 09:52 Cloudy with Mist and Fog 36 2.2 36 2.2 100 100 NNW 13 20 30.28 1025 2 3 0.00 0.03
9:58 am 09:58 Cloudy with Mist and Fog 36 2.2 36 2.2 100 100 NW 14 22 30.33 1027 4 6 0.00 0.00
10:52 am 10:52 Cloudy with Mist and Fog 35 1.7 35 1.7 100 100 NNW 13 20 30.29 1026 5 8 0.00 0.00
11:35 am 11:35 Cloudy with Mist and Fog 35 1.7 35 1.7 100 100 NNW 15 24 30.36 1028 6 10 0.00 0.00
11:52 am 11:52 Cloudy with Mist and Fog 36 2.2 36 2.2 100 100 NNW 13 20 30.32 1027 6 10 0.00 0.00
12:26 pm 12:26 Cloudy 36 2.2 31 -0.6 82 82 N 10 17 30.36 1028 7 11 0.00 0.00
12:52 pm 12:52 Cloudy 37 2.8 30 -1.1 76 76 N 13 20 30.30 1026 10 16 0.00 0.00
1:52 pm 13:52 Cloudy 37 2.8 27 -2.8 67 67 NNW 12 19 30.30 1026 10 16 0.00 0.00
2:52 pm 14:52 Cloudy 37 2.8 27 -2.8 67 67 NNW 10 17 30.31 1026 10 16 0.00 0.00
3:52 pm 15:52 Cloudy 36 2.2 26 -3.3 67 67 N 9 15 30.34 1027 10 16 0.00 0.00
4:52 pm 16:52 Cloudy 36 2.2 27 -2.8 70 70 NW 9 15 30.35 1028 10 16 0.00 0.00
4:59 pm 16:59 Cloudy 36 2.2 26 -3.3 67 67 NNW 9 15 30.39 1029 10 16 0.00 0.00
5:52 pm 17:52 Cloudy 34 1.1 23 -5 64 64 NNW 14 22 30.36 1028 10 16 0.00 0.00
6:52 pm 18:52 Cloudy 32 0 24 -4.4 73 73 NNW 10 17 30.39 1029 10 16 0.00 0.00
7:52 pm 19:52 Cloudy 32 0 24 -4.4 73 73 NW 8 13 30.41 1030 10 16 0.00 0.00
8:52 pm 20:52 Cloudy 31 -0.6 24 -4.4 76 76 NW 8 13 30.43 1031 10 16 0.00 0.00
9:52 pm 21:52 Cloudy 29 -1.7 23 -5 78 78 NNW 9 15 30.45 1031 10 16 0.00 0.00
10:52 pm 22:52 Mostly Cloudy 28 -2.2 22 -5.6 78 78 NNW 7 11 30.46 1032 10 16 0.00 0.00
11:52 pm 23:52 Mostly Cloudy 27 -2.8 22 -5.6 81 81 NW 6 9 30.47 1032 9 14 0.00 0.00

Powered by AerisWeather